星链-30915 (STARLINK-30915 )

导读

STARLINK-30915是美国太空探索技术公司SpaceX星链星座中的一颗卫星,于北京时间2023年11月20日发射入轨,归属星链互联网项目,旨在为全球提供高速低延迟宽带互联网服务。作为星链组网的成员卫星,它延续了该星座批量部署的特点,服务覆盖全球多数偏远与网络欠发达区域。

Basic Information
目录编号:
58380
目录名称:
STARLINK-30915
国际标识:
2023-178G
轨道中心:
EARTH
卫星名称:
星链-30915
卫星全名:
星链-30915 (STARLINK-30915 )
卫星状态:
在轨 (已飞行941 天)
发射日期:
2023-11-20 UTC
国别 :
美国 (US)
星等 :
--
Orbit Information
数据来源 国际轨道数据
星历时间: 2026-06-18T07:17:46+0800
11小时前
查看轨道信息
半长轴: 6840.773km
偏心率: 0.0001432
轨道倾角: 53.161°
近地点辐角 141.805°
升交点赤经 165.269°
平近点角 218.306°
近地点: 461.656km
远地点: 463.616km
周期: 93.846分钟
每日圈数: 15.344228
Detailed Information
固有亮度:
5
最大亮度:
0.3
卫星平台:
Starlink v2.0 mini
覆盖范围:
全球
运营商:
太空探索技术公司
运营商所在国:
美国
制造商(研发单位):
太空探索技术公司
制造商所在国:
美国
使用方式:
暂无
Satellite Introduction
星链(Starlink)计划是由太空探索技术公司(SpaceX)提出的一个巨型低轨卫星互联网星座项目,计划在2019年至2024年间在太空搭建由约1.2万颗卫星组成的“星链”网络,其中1584颗将部署在地球上空550千米处的近地轨道,并从2020年开始工作。该卫星仍在工作。
2D Orbit Map
3D Orbit Map
Orbit Altitude Analysis Chart
Orbit Inclination Analysis Chart
Orbit Comprehensive Analysis Chart
View Comprehensive Chart